Year,Month,Day,Hour,Minute,Value (Times are PST for windspeed in km/hr)
2006,01,27,00,00,11.60
2006,01,27,00,01,8.60
2006,01,27,00,02,9.80
2006,01,27,00,03,11.30
2006,01,27,00,04,6.30
2006,01,27,00,05,7.20
2006,01,27,00,06,7.00
2006,01,27,00,07,6.00
2006,01,27,00,08,6.90
2006,01,27,00,09,7.50
2006,01,27,00,10,9.20
2006,01,27,00,11,6.80
2006,01,27,00,12,8.70
2006,01,27,00,13,8.10
2006,01,27,00,14,9.70
2006,01,27,00,15,13.30
2006,01,27,00,16,14.40
2006,01,27,00,17,8.60
2006,01,27,00,18,6.00
2006,01,27,00,19,9.30
2006,01,27,00,20,6.80
2006,01,27,00,21,5.80
2006,01,27,00,22,8.00
2006,01,27,00,23,14.90
2006,01,27,00,24,9.90
2006,01,27,00,25,11.30
2006,01,27,00,26,15.30
2006,01,27,00,27,18.00
2006,01,27,00,28,20.90
2006,01,27,00,29,13.10
2006,01,27,00,30,11.90
2006,01,27,00,31,8.60
2006,01,27,00,32,9.60
2006,01,27,00,33,6.40
2006,01,27,00,34,5.40
2006,01,27,00,35,7.60
2006,01,27,00,36,6.40
2006,01,27,00,37,5.10
2006,01,27,00,38,7.10
2006,01,27,00,39,7.70
2006,01,27,00,40,7.20
2006,01,27,00,41,4.60
2006,01,27,00,42,11.20
2006,01,27,00,43,6.40
2006,01,27,00,44,5.10
2006,01,27,00,45,1.60
2006,01,27,00,46,2.30
2006,01,27,00,47,6.40
2006,01,27,00,48,8.50
2006,01,27,00,49,4.40
2006,01,27,00,50,4.30
2006,01,27,00,51,5.10
2006,01,27,00,52,6.20
2006,01,27,00,53,6.40
2006,01,27,00,54,4.30
2006,01,27,00,55,3.00
2006,01,27,00,56,4.00
2006,01,27,00,57,3.30
2006,01,27,00,58,2.80
2006,01,27,00,59,2.40
2006,01,27,01,00,1.60
2006,01,27,01,01,3.00
2006,01,27,01,02,1.60
2006,01,27,01,03,4.00
2006,01,27,01,04,4.00
2006,01,27,01,05,3.10
2006,01,27,01,06,3.00
2006,01,27,01,07,5.70
2006,01,27,01,08,5.10
2006,01,27,01,09,3.10
2006,01,27,01,10,5.00
2006,01,27,01,11,1.40
2006,01,27,01,12,4.00
2006,01,27,01,13,3.50
2006,01,27,01,14,1.60
2006,01,27,01,15,0.20
2006,01,27,01,16,0.00
2006,01,27,01,17,2.80
2006,01,27,01,18,2.90
2006,01,27,01,19,2.70
2006,01,27,01,20,3.70
2006,01,27,01,21,1.40
2006,01,27,01,22,2.20
2006,01,27,01,23,4.60
2006,01,27,01,24,3.10
2006,01,27,01,25,2.70
2006,01,27,01,26,2.90
2006,01,27,01,27,1.10
2006,01,27,01,28,2.80
2006,01,27,01,29,2.20
2006,01,27,01,30,0.80
2006,01,27,01,31,3.60
2006,01,27,01,32,1.20
2006,01,27,01,33,2.30
2006,01,27,01,34,1.30
2006,01,27,01,35,0.90
2006,01,27,01,36,0.10
2006,01,27,01,37,0.00
2006,01,27,01,38,0.20
2006,01,27,01,39,0.00
2006,01,27,01,40,1.90
2006,01,27,01,41,2.70
2006,01,27,01,42,2.90
2006,01,27,01,43,2.70
2006,01,27,01,44,1.80
2006,01,27,01,45,2.10
2006,01,27,01,46,0.90
2006,01,27,01,47,0.00
2006,01,27,01,48,0.00
2006,01,27,01,49,0.00
2006,01,27,01,50,0.00
2006,01,27,01,51,0.00
2006,01,27,01,52,0.00
2006,01,27,01,53,1.30
2006,01,27,01,54,2.10
2006,01,27,01,55,4.70
2006,01,27,01,56,4.20
2006,01,27,01,57,4.30
2006,01,27,01,58,3.80
2006,01,27,01,59,2.50
2006,01,27,02,00,2.60
2006,01,27,02,01,2.50
2006,01,27,02,02,3.10
2006,01,27,02,03,3.50
2006,01,27,02,04,4.30
2006,01,27,02,05,2.80
2006,01,27,02,06,1.70
2006,01,27,02,07,1.70
2006,01,27,02,08,2.60
2006,01,27,02,09,2.90
2006,01,27,02,10,2.50
2006,01,27,02,11,2.30
2006,01,27,02,12,2.00
2006,01,27,02,13,2.20
2006,01,27,02,14,3.20
2006,01,27,02,15,2.90
2006,01,27,02,16,2.10
2006,01,27,02,17,1.70
2006,01,27,02,18,2.60
2006,01,27,02,19,2.50
2006,01,27,02,20,2.40
2006,01,27,02,21,1.50
2006,01,27,02,22,1.40
2006,01,27,02,23,0.60
2006,01,27,02,24,0.00
2006,01,27,02,25,0.00
2006,01,27,02,26,0.00
2006,01,27,02,27,0.00
2006,01,27,02,28,0.00
2006,01,27,02,29,0.00
2006,01,27,02,30,0.00
2006,01,27,02,31,0.00
2006,01,27,02,32,0.00
2006,01,27,02,33,0.00
2006,01,27,02,34,0.00
2006,01,27,02,35,0.00
2006,01,27,02,36,0.00
2006,01,27,02,37,0.00
2006,01,27,02,38,0.00
2006,01,27,02,39,0.00
2006,01,27,02,40,0.00
2006,01,27,02,41,0.00
2006,01,27,02,42,0.00
2006,01,27,02,43,2.50
2006,01,27,02,44,3.30
2006,01,27,02,45,2.50
2006,01,27,02,46,1.80
2006,01,27,02,47,1.10
2006,01,27,02,48,1.50
2006,01,27,02,49,2.40
2006,01,27,02,50,4.30
2006,01,27,02,51,3.80
2006,01,27,02,52,3.70
2006,01,27,02,53,4.40
2006,01,27,02,54,4.30
2006,01,27,02,55,4.60
2006,01,27,02,56,5.20
2006,01,27,02,57,4.80
2006,01,27,02,58,4.60
2006,01,27,02,59,4.10
2006,01,27,03,00,2.50
2006,01,27,03,01,1.20
2006,01,27,03,02,0.20
2006,01,27,03,03,0.00
2006,01,27,03,04,0.00
2006,01,27,03,05,0.00
2006,01,27,03,06,0.00
2006,01,27,03,07,0.00
2006,01,27,03,08,0.00
2006,01,27,03,09,0.40
2006,01,27,03,10,2.20
2006,01,27,03,11,1.20
2006,01,27,03,12,1.50
2006,01,27,03,13,0.00
2006,01,27,03,14,0.00
2006,01,27,03,15,0.00
2006,01,27,03,16,0.00
2006,01,27,03,17,0.00
2006,01,27,03,18,0.00
2006,01,27,03,19,0.00
2006,01,27,03,20,0.00
2006,01,27,03,21,0.00
2006,01,27,03,22,0.00
2006,01,27,03,23,0.00
2006,01,27,03,24,0.00
2006,01,27,03,25,0.00
2006,01,27,03,26,0.00
2006,01,27,03,27,0.00
2006,01,27,03,28,0.00
2006,01,27,03,29,0.00
2006,01,27,03,30,0.00
2006,01,27,03,31,0.00
2006,01,27,03,32,0.00
2006,01,27,03,33,0.00
2006,01,27,03,34,0.00
2006,01,27,03,35,0.00
2006,01,27,03,36,0.00
2006,01,27,03,37,0.00
2006,01,27,03,38,0.00
2006,01,27,03,39,0.00
2006,01,27,03,40,0.00
2006,01,27,03,41,0.00
2006,01,27,03,42,0.00
2006,01,27,03,43,0.00
2006,01,27,03,44,0.00
2006,01,27,03,45,0.00
2006,01,27,03,46,0.00
2006,01,27,03,47,0.00
2006,01,27,03,48,0.00
2006,01,27,03,49,0.00
2006,01,27,03,50,0.00
2006,01,27,03,51,0.00
2006,01,27,03,52,0.00
2006,01,27,03,53,0.00
2006,01,27,03,54,0.00
2006,01,27,03,55,0.00
2006,01,27,03,56,0.00
2006,01,27,03,57,0.00
2006,01,27,03,58,0.00
2006,01,27,03,59,0.00
2006,01,27,04,00,0.00
2006,01,27,04,01,0.00
2006,01,27,04,02,0.00
2006,01,27,04,03,0.00
2006,01,27,04,04,0.00
2006,01,27,04,05,0.00
2006,01,27,04,06,0.00
2006,01,27,04,07,0.00
2006,01,27,04,08,0.00
2006,01,27,04,09,0.00
2006,01,27,04,10,0.00
2006,01,27,04,11,0.00
2006,01,27,04,12,0.00
2006,01,27,04,13,0.00
2006,01,27,04,14,0.00
2006,01,27,04,15,0.90
2006,01,27,04,16,1.30
2006,01,27,04,17,1.40
2006,01,27,04,18,0.00
2006,01,27,04,19,0.00
2006,01,27,04,20,0.00
2006,01,27,04,21,0.00
2006,01,27,04,22,0.00
2006,01,27,04,23,0.00
2006,01,27,04,24,0.00
2006,01,27,04,25,0.00
2006,01,27,04,26,0.00
2006,01,27,04,27,0.00
2006,01,27,04,28,0.00
2006,01,27,04,29,0.00
2006,01,27,04,30,0.00
2006,01,27,04,31,0.00
2006,01,27,04,32,0.00
2006,01,27,04,33,0.00
2006,01,27,04,34,0.00
2006,01,27,04,35,0.00
2006,01,27,04,36,0.00
2006,01,27,04,37,0.00
2006,01,27,04,38,0.00
2006,01,27,04,39,0.00
2006,01,27,04,40,0.00
2006,01,27,04,41,0.00
2006,01,27,04,42,0.00
2006,01,27,04,43,0.00
2006,01,27,04,44,0.00
2006,01,27,04,45,0.00
2006,01,27,04,46,0.00
2006,01,27,04,47,0.00
2006,01,27,04,48,0.00
2006,01,27,04,49,0.00
2006,01,27,04,50,0.00
2006,01,27,04,51,0.00
2006,01,27,04,52,0.00
2006,01,27,04,53,0.00
2006,01,27,04,54,0.00
2006,01,27,04,55,0.00
2006,01,27,04,56,0.00
2006,01,27,04,57,0.00
2006,01,27,04,58,0.00
2006,01,27,04,59,0.00
2006,01,27,05,00,0.00
2006,01,27,05,01,0.00
2006,01,27,05,02,0.00
2006,01,27,05,03,0.00
2006,01,27,05,04,0.00
2006,01,27,05,05,0.00
2006,01,27,05,06,0.00
2006,01,27,05,07,0.00
2006,01,27,05,08,0.00
2006,01,27,05,09,0.00
2006,01,27,05,10,0.00
2006,01,27,05,11,0.00
2006,01,27,05,12,0.00
2006,01,27,05,13,0.00
2006,01,27,05,14,0.00
2006,01,27,05,15,0.00
2006,01,27,05,16,0.00
2006,01,27,05,17,0.00
2006,01,27,05,18,0.00
2006,01,27,05,19,0.00
2006,01,27,05,20,0.00
2006,01,27,05,21,0.00
2006,01,27,05,22,0.00
2006,01,27,05,23,0.00
2006,01,27,05,24,0.00
2006,01,27,05,25,0.00
2006,01,27,05,26,0.00
2006,01,27,05,27,0.00
2006,01,27,05,28,0.00
2006,01,27,05,29,0.00
2006,01,27,05,30,0.00
2006,01,27,05,31,0.00
2006,01,27,05,32,0.00
2006,01,27,05,33,0.00
2006,01,27,05,34,0.00
2006,01,27,05,35,0.00
2006,01,27,05,36,0.00
2006,01,27,05,37,0.00
2006,01,27,05,38,0.00
2006,01,27,05,39,0.00
2006,01,27,05,40,0.00
2006,01,27,05,41,0.00
2006,01,27,05,42,0.00
2006,01,27,05,43,0.00
2006,01,27,05,44,0.00
2006,01,27,05,45,0.00
2006,01,27,05,46,0.00
2006,01,27,05,47,0.00
2006,01,27,05,48,0.00
2006,01,27,05,49,0.00
2006,01,27,05,50,0.00
2006,01,27,05,51,0.00
2006,01,27,05,52,0.00
2006,01,27,05,53,0.00
2006,01,27,05,54,0.00
2006,01,27,05,55,0.00
2006,01,27,05,56,0.00
2006,01,27,05,57,0.00
2006,01,27,05,58,0.00
2006,01,27,05,59,0.00
2006,01,27,06,00,0.00
2006,01,27,06,01,0.00
2006,01,27,06,02,0.00
2006,01,27,06,03,0.00
2006,01,27,06,04,0.00
2006,01,27,06,05,0.00
2006,01,27,06,06,0.00
2006,01,27,06,07,0.00
2006,01,27,06,08,0.00
2006,01,27,06,09,0.00
2006,01,27,06,10,0.00
2006,01,27,06,11,0.00
2006,01,27,06,12,0.00
2006,01,27,06,13,0.00
2006,01,27,06,14,0.00
2006,01,27,06,15,0.00
2006,01,27,06,16,0.00
2006,01,27,06,17,0.00
2006,01,27,06,18,0.00
2006,01,27,06,19,0.00
2006,01,27,06,20,0.00
2006,01,27,06,21,0.00
2006,01,27,06,22,0.00
2006,01,27,06,23,0.00
2006,01,27,06,24,0.00
2006,01,27,06,25,0.00
2006,01,27,06,26,0.00
2006,01,27,06,27,0.00
2006,01,27,06,28,0.00
2006,01,27,06,29,0.00
2006,01,27,06,30,0.00
2006,01,27,06,31,0.00
2006,01,27,06,32,0.00
2006,01,27,06,33,0.00
2006,01,27,06,34,0.00
2006,01,27,06,35,0.00
2006,01,27,06,36,0.00
2006,01,27,06,37,0.00
2006,01,27,06,38,0.00
2006,01,27,06,39,0.00
2006,01,27,06,40,0.00
2006,01,27,06,41,0.00
2006,01,27,06,42,0.00
2006,01,27,06,43,0.00
2006,01,27,06,44,0.00
2006,01,27,06,45,0.00
2006,01,27,06,46,0.00
2006,01,27,06,47,0.00
2006,01,27,06,48,0.00
2006,01,27,06,49,0.00
2006,01,27,06,50,0.00
2006,01,27,06,51,0.00
2006,01,27,06,52,0.00
2006,01,27,06,53,0.00
2006,01,27,06,54,0.00
2006,01,27,06,55,0.00
2006,01,27,06,56,0.00
2006,01,27,06,57,0.00
2006,01,27,06,58,0.00
2006,01,27,06,59,0.00
2006,01,27,07,00,0.00
2006,01,27,07,01,0.00
2006,01,27,07,02,0.00
2006,01,27,07,03,0.00
2006,01,27,07,04,0.00
2006,01,27,07,05,0.00
2006,01,27,07,06,0.00
2006,01,27,07,07,0.00
2006,01,27,07,08,0.00
2006,01,27,07,09,0.00
2006,01,27,07,10,0.00
2006,01,27,07,11,0.00
2006,01,27,07,12,0.00
2006,01,27,07,13,0.00
2006,01,27,07,14,0.00
2006,01,27,07,15,0.00
2006,01,27,07,16,0.00
2006,01,27,07,17,0.00
2006,01,27,07,18,0.00
2006,01,27,07,19,0.00
2006,01,27,07,20,0.00
2006,01,27,07,21,0.00
2006,01,27,07,22,0.00
2006,01,27,07,23,0.00
2006,01,27,07,24,0.00
2006,01,27,07,25,0.00
2006,01,27,07,26,0.00
2006,01,27,07,27,0.00
2006,01,27,07,28,0.00
2006,01,27,07,29,0.00
2006,01,27,07,30,0.00
2006,01,27,07,31,0.00
2006,01,27,07,32,0.00
2006,01,27,07,33,0.00
2006,01,27,07,34,0.00
2006,01,27,07,35,0.00
2006,01,27,07,36,0.00
2006,01,27,07,37,0.00
2006,01,27,07,38,0.00
2006,01,27,07,39,0.00
2006,01,27,07,40,0.00
2006,01,27,07,41,0.00
2006,01,27,07,42,0.20
2006,01,27,07,43,0.00
2006,01,27,07,44,0.00
2006,01,27,07,45,0.00
2006,01,27,07,46,0.00
2006,01,27,07,47,0.00
2006,01,27,07,48,0.00
2006,01,27,07,49,0.00
2006,01,27,07,50,0.00
2006,01,27,07,51,0.00
2006,01,27,07,52,0.00
2006,01,27,07,53,0.00
2006,01,27,07,54,0.00
2006,01,27,07,55,0.00
2006,01,27,07,56,0.00
2006,01,27,07,57,0.00
2006,01,27,07,58,0.00
2006,01,27,07,59,0.00
2006,01,27,08,00,0.00
2006,01,27,08,01,0.60
2006,01,27,08,02,1.40
2006,01,27,08,03,1.00
2006,01,27,08,04,0.90
2006,01,27,08,05,0.20
2006,01,27,08,06,0.00
2006,01,27,08,07,0.00
2006,01,27,08,08,0.00
2006,01,27,08,09,0.00
2006,01,27,08,10,0.00
2006,01,27,08,11,0.00
2006,01,27,08,12,0.00
2006,01,27,08,13,0.00
2006,01,27,08,14,0.00
2006,01,27,13,18,5.40
2006,01,27,13,19,6.60
2006,01,27,13,20,9.60
2006,01,27,13,21,12.20
2006,01,27,13,22,12.20
2006,01,27,13,23,11.70
2006,01,27,13,24,13.80
2006,01,27,13,25,12.40
2006,01,27,13,26,12.50
2006,01,27,13,27,15.70
2006,01,27,13,28,11.90
2006,01,27,13,29,10.00
2006,01,27,13,30,10.00
2006,01,27,13,31,11.80
2006,01,27,13,32,8.20
2006,01,27,13,33,9.20
2006,01,27,13,34,8.60
2006,01,27,13,35,5.90
2006,01,27,13,36,6.10
2006,01,27,13,37,6.40
2006,01,27,13,38,7.00
2006,01,27,13,39,3.60
2006,01,27,13,40,5.00
2006,01,27,13,41,7.20
2006,01,27,13,42,7.60
2006,01,27,13,43,3.60
2006,01,27,13,44,5.60
2006,01,27,13,45,8.50
2006,01,27,13,46,5.80
2006,01,27,13,47,6.00
2006,01,27,13,48,11.20
2006,01,27,13,49,7.60
2006,01,27,13,50,6.10
2006,01,27,13,51,4.70
2006,01,27,13,52,5.60
2006,01,27,13,53,6.30
2006,01,27,13,54,8.10
2006,01,27,13,55,7.40
2006,01,27,13,56,15.10
2006,01,27,13,57,12.20
2006,01,27,13,58,13.40
2006,01,27,13,59,10.40
2006,01,27,14,00,11.60
2006,01,27,14,01,12.30
2006,01,27,14,02,8.10
2006,01,27,14,03,6.00
2006,01,27,14,04,12.50
2006,01,27,14,05,8.30
2006,01,27,14,06,5.60
2006,01,27,14,07,4.80
2006,01,27,14,08,7.30
2006,01,27,14,09,6.20
2006,01,27,14,10,7.20
2006,01,27,14,11,8.10
2006,01,27,14,12,6.50
2006,01,27,14,13,8.10
2006,01,27,14,14,8.60
2006,01,27,14,15,8.60
2006,01,27,14,16,6.30
2006,01,27,14,17,9.70
2006,01,27,14,18,10.90
2006,01,27,14,19,7.90
2006,01,27,14,20,11.30
2006,01,27,14,21,9.30
2006,01,27,14,22,9.70
2006,01,27,14,23,10.00
2006,01,27,14,24,12.80
2006,01,27,14,25,14.60
2006,01,27,14,26,8.60
2006,01,27,14,27,8.10
2006,01,27,14,28,14.50
2006,01,27,14,29,10.10
2006,01,27,14,30,10.10
2006,01,27,14,31,11.30
2006,01,27,14,32,15.40
2006,01,27,14,33,16.20
2006,01,27,14,34,13.30
2006,01,27,14,35,11.10
2006,01,27,14,36,11.00
2006,01,27,14,37,14.40
2006,01,27,14,38,14.10
2006,01,27,14,39,12.10
2006,01,27,14,40,13.00
2006,01,27,14,41,10.10
2006,01,27,14,42,10.70
2006,01,27,14,43,13.50
2006,01,27,14,44,13.70
2006,01,27,14,45,12.80
2006,01,27,14,46,13.10
2006,01,27,14,47,14.30
2006,01,27,14,48,14.10
2006,01,27,14,49,14.60
2006,01,27,14,50,8.10
2006,01,27,14,51,11.80
2006,01,27,14,52,12.60
2006,01,27,14,53,13.60
2006,01,27,14,54,13.90
2006,01,27,14,55,16.90
2006,01,27,14,56,11.90
2006,01,27,14,57,11.90
2006,01,27,14,58,11.20
2006,01,27,14,59,8.60
2006,01,27,15,00,8.60
2006,01,27,15,01,9.70
2006,01,27,15,02,11.40
2006,01,27,15,03,8.20
2006,01,27,15,04,8.20
2006,01,27,15,05,13.00
2006,01,27,15,06,9.30
2006,01,27,15,07,13.40
2006,01,27,15,08,13.40
2006,01,27,15,09,8.20
2006,01,27,15,10,9.00
2006,01,27,15,11,8.60
2006,01,27,15,12,13.10
2006,01,27,15,13,13.50
2006,01,27,15,14,13.40
2006,01,27,15,15,9.50
2006,01,27,15,16,11.80
2006,01,27,15,17,12.20
2006,01,27,15,18,14.30
2006,01,27,15,19,14.50
2006,01,27,15,20,12.60
2006,01,27,15,21,14.00
2006,01,27,15,22,9.80
2006,01,27,15,23,13.60
2006,01,27,15,24,14.60
2006,01,27,15,25,17.20
2006,01,27,15,26,14.70
2006,01,27,15,27,14.80
2006,01,27,15,28,8.40
2006,01,27,15,29,12.40
2006,01,27,15,30,9.70
2006,01,27,15,31,7.10
2006,01,27,15,32,7.70
2006,01,27,15,33,8.80
2006,01,27,15,34,12.90
2006,01,27,15,35,6.80
2006,01,27,15,36,6.60
2006,01,27,15,37,9.30
2006,01,27,15,38,6.80
2006,01,27,15,39,5.00
2006,01,27,15,40,5.00
2006,01,27,15,41,9.70
2006,01,27,15,42,9.20
2006,01,27,15,43,7.20
2006,01,27,15,44,9.00
2006,01,27,15,45,10.30
2006,01,27,15,46,14.30
2006,01,27,15,47,7.50
2006,01,27,15,48,10.30
2006,01,27,15,49,14.30
2006,01,27,15,50,13.90
2006,01,27,15,51,7.90
2006,01,27,15,52,9.90
2006,01,27,15,53,5.50
2006,01,27,15,54,5.70
2006,01,27,15,55,5.60
2006,01,27,15,56,7.70
2006,01,27,15,57,12.90
2006,01,27,15,58,10.70
2006,01,27,15,59,7.60
2006,01,27,16,00,12.60
2006,01,27,16,01,14.70
2006,01,27,16,02,10.70
2006,01,27,16,03,11.30
2006,01,27,16,04,16.50
2006,01,27,16,05,14.40
2006,01,27,16,06,10.00
2006,01,27,16,07,8.30
2006,01,27,16,08,11.00
2006,01,27,16,09,14.50
2006,01,27,16,10,14.10
2006,01,27,16,11,11.80
2006,01,27,16,12,14.20
2006,01,27,16,13,12.60
2006,01,27,16,14,13.10
2006,01,27,16,15,6.00
2006,01,27,16,16,11.30
2006,01,27,16,17,13.80
2006,01,27,16,18,9.30
2006,01,27,16,19,9.30
2006,01,27,16,20,7.90
2006,01,27,16,21,8.60
2006,01,27,16,22,9.30
2006,01,27,16,23,7.00
2006,01,27,16,24,7.20
2006,01,27,16,25,7.70
2006,01,27,16,26,6.00
2006,01,27,16,27,9.10
2006,01,27,16,28,11.80
2006,01,27,16,29,15.20
2006,01,27,16,30,10.00
2006,01,27,16,31,10.80
2006,01,27,16,32,10.90
2006,01,27,16,33,6.60
2006,01,27,16,34,10.40
2006,01,27,16,35,9.50
2006,01,27,16,36,8.60
2006,01,27,16,37,5.20
2006,01,27,16,38,6.50
2006,01,27,16,39,12.40
2006,01,27,16,40,9.40
2006,01,27,16,41,16.00
2006,01,27,16,42,14.80
2006,01,27,16,43,7.20
2006,01,27,16,44,8.80
2006,01,27,16,45,8.60
2006,01,27,16,46,8.50
2006,01,27,16,47,9.80
2006,01,27,16,48,7.60
2006,01,27,16,49,9.30
2006,01,27,16,50,12.70
2006,01,27,16,51,11.40
2006,01,27,16,52,10.70
2006,01,27,16,53,8.00
2006,01,27,16,54,7.50
2006,01,27,16,55,9.00
2006,01,27,16,56,10.30
2006,01,27,16,57,17.10
2006,01,27,16,58,11.80
2006,01,27,16,59,11.30
2006,01,27,17,00,8.10
2006,01,27,17,01,10.10
2006,01,27,17,02,10.00
2006,01,27,17,03,12.80
2006,01,27,17,04,11.90
2006,01,27,17,05,8.90
2006,01,27,17,06,9.40
2006,01,27,17,07,8.00
2006,01,27,17,08,7.60
2006,01,27,17,09,13.50
2006,01,27,17,10,11.40
2006,01,27,17,11,8.40
2006,01,27,17,12,7.30
2006,01,27,17,13,6.50
2006,01,27,17,14,15.70
2006,01,27,17,15,12.80
2006,01,27,17,16,11.30
2006,01,27,17,17,8.30
2006,01,27,17,18,7.90
2006,01,27,17,19,8.40
2006,01,27,17,20,7.80
2006,01,27,17,21,3.70
2006,01,27,17,22,5.50
2006,01,27,17,23,6.10
2006,01,27,17,24,9.50
2006,01,27,17,25,6.10
2006,01,27,17,26,5.80
2006,01,27,17,27,6.40
2006,01,27,17,28,6.60
2006,01,27,17,29,5.10
2006,01,27,17,30,3.60
2006,01,27,17,31,3.40
2006,01,27,17,32,6.60
2006,01,27,17,33,8.50
2006,01,27,17,34,7.80
2006,01,27,17,35,5.00
2006,01,27,17,36,7.50
2006,01,27,17,37,3.60
2006,01,27,17,38,4.20
2006,01,27,17,39,3.20
2006,01,27,17,40,3.20
2006,01,27,17,41,3.60
2006,01,27,17,42,7.30
2006,01,27,17,43,6.80
2006,01,27,17,44,3.00
2006,01,27,17,45,4.90
2006,01,27,17,46,5.70
2006,01,27,17,47,5.10
2006,01,27,17,48,3.50
2006,01,27,17,49,1.60
2006,01,27,17,50,3.10
2006,01,27,17,51,3.50
2006,01,27,17,52,2.50
2006,01,27,17,53,1.20
2006,01,27,17,54,0.00
2006,01,27,17,55,0.00
2006,01,27,17,56,0.00
2006,01,27,17,57,1.10
2006,01,27,17,58,4.90
2006,01,27,17,59,4.70
2006,01,27,18,00,1.60
2006,01,27,18,01,2.00
2006,01,27,18,02,2.00
2006,01,27,18,03,3.60
2006,01,27,18,04,3.70
2006,01,27,18,05,3.20
2006,01,27,18,06,2.10
2006,01,27,18,07,1.70
2006,01,27,18,08,0.10
2006,01,27,18,09,1.60
2006,01,27,18,10,1.80
2006,01,27,18,11,2.10
2006,01,27,18,12,3.60
2006,01,27,18,13,2.30
2006,01,27,18,14,2.90
2006,01,27,18,15,3.10
2006,01,27,18,16,2.10
2006,01,27,18,17,2.20
2006,01,27,18,18,2.40
2006,01,27,18,19,1.50
2006,01,27,18,20,0.80
2006,01,27,18,21,0.00
2006,01,27,18,22,0.00
2006,01,27,18,23,0.90
2006,01,27,18,24,0.10
2006,01,27,18,25,1.30
2006,01,27,18,26,1.70
2006,01,27,18,27,2.50
2006,01,27,18,28,2.00
2006,01,27,18,29,2.00
2006,01,27,18,30,1.50
2006,01,27,18,31,1.40
2006,01,27,18,32,0.40
2006,01,27,18,33,2.50
2006,01,27,18,34,3.10
2006,01,27,18,35,1.20
2006,01,27,18,36,0.30
2006,01,27,18,37,1.50
2006,01,27,18,38,2.00
2006,01,27,18,39,0.80
2006,01,27,18,40,0.00
2006,01,27,18,41,0.00
2006,01,27,18,42,0.00
2006,01,27,18,43,0.40
2006,01,27,18,44,1.50
2006,01,27,18,45,1.60
2006,01,27,18,46,1.50
2006,01,27,18,47,3.00
2006,01,27,18,48,1.90
2006,01,27,18,49,0.00
2006,01,27,18,50,0.00
2006,01,27,18,51,0.70
2006,01,27,18,52,1.10
2006,01,27,18,53,1.10
2006,01,27,18,54,0.70
2006,01,27,18,55,0.00
2006,01,27,18,56,0.00
2006,01,27,18,57,0.00
2006,01,27,18,58,1.00
2006,01,27,18,59,0.10
2006,01,27,19,00,0.90
2006,01,27,19,01,4.30
2006,01,27,19,02,4.10
2006,01,27,19,03,2.60
2006,01,27,19,04,1.70
2006,01,27,19,05,4.30
2006,01,27,19,06,3.00
2006,01,27,19,07,2.70
2006,01,27,19,08,4.00
2006,01,27,19,09,5.30
2006,01,27,19,10,4.30
2006,01,27,19,11,3.40
2006,01,27,19,12,1.40
2006,01,27,19,13,1.30
2006,01,27,19,14,2.40
2006,01,27,19,15,4.80
2006,01,27,19,16,3.10
2006,01,27,19,17,3.40
2006,01,27,19,18,4.70
2006,01,27,19,19,4.70
2006,01,27,19,20,1.90
2006,01,27,19,21,2.00
2006,01,27,19,22,2.10
2006,01,27,19,23,1.50
2006,01,27,19,24,1.10
2006,01,27,19,25,2.70
2006,01,27,19,26,3.50
2006,01,27,19,27,3.60
2006,01,27,19,28,4.70
2006,01,27,19,29,2.30
2006,01,27,19,30,2.10
2006,01,27,19,31,2.60
2006,01,27,19,32,4.90
2006,01,27,19,33,3.60
2006,01,27,19,34,2.30
2006,01,27,19,35,3.10
2006,01,27,19,36,3.80
2006,01,27,19,37,2.80
2006,01,27,19,38,4.50
2006,01,27,19,39,4.20
2006,01,27,19,40,3.00
2006,01,27,19,41,2.70
2006,01,27,19,42,0.90
2006,01,27,19,43,1.10
2006,01,27,19,44,0.50
2006,01,27,19,45,3.60
2006,01,27,19,46,3.90
2006,01,27,19,47,4.00
2006,01,27,19,48,3.60
2006,01,27,19,49,2.80
2006,01,27,19,50,0.70
2006,01,27,19,51,1.80
2006,01,27,19,52,1.80
2006,01,27,19,53,2.00
2006,01,27,19,54,2.00
2006,01,27,19,55,1.90
2006,01,27,19,56,0.20
2006,01,27,19,57,1.50
2006,01,27,19,58,0.20
2006,01,27,19,59,0.00
2006,01,27,20,00,0.00
2006,01,27,20,01,0.90
2006,01,27,20,02,0.90
2006,01,27,20,03,0.10
2006,01,27,20,04,0.80
2006,01,27,20,05,2.10
2006,01,27,20,06,3.50
2006,01,27,20,07,2.70
2006,01,27,20,08,2.30
2006,01,27,20,09,1.90
2006,01,27,20,10,1.30
2006,01,27,20,11,1.80
2006,01,27,20,12,1.50
2006,01,27,20,13,1.50
2006,01,27,20,14,2.20
2006,01,27,20,15,4.40
2006,01,27,20,16,3.20
2006,01,27,20,17,5.20
2006,01,27,20,18,4.50
2006,01,27,20,19,3.20
2006,01,27,20,20,5.80
2006,01,27,20,21,3.00
2006,01,27,20,22,4.30
2006,01,27,20,23,5.70
2006,01,27,20,24,7.20
2006,01,27,20,25,5.20
2006,01,27,20,26,8.10
2006,01,27,20,27,8.10
2006,01,27,20,28,8.50
2006,01,27,20,29,8.90
2006,01,27,20,30,13.00
2006,01,27,20,31,13.40
2006,01,27,20,32,14.30
2006,01,27,20,33,10.70
2006,01,27,20,34,17.10
2006,01,27,20,35,7.50
2006,01,27,20,36,10.90
2006,01,27,20,37,10.70
2006,01,27,20,38,14.80
2006,01,27,20,39,8.70
2006,01,27,20,40,6.30
2006,01,27,20,41,8.00
2006,01,27,20,42,10.10
2006,01,27,20,43,7.40
2006,01,27,20,44,11.80
2006,01,27,20,45,11.00
2006,01,27,20,46,8.50
2006,01,27,20,47,10.60
2006,01,27,20,48,9.50
2006,01,27,20,49,6.80
2006,01,27,20,50,13.80
2006,01,27,20,51,14.90
2006,01,27,20,52,9.70
2006,01,27,20,53,10.60
2006,01,27,20,54,11.30
2006,01,27,20,55,13.80
2006,01,27,20,56,8.60
2006,01,27,20,57,12.30
2006,01,27,20,58,13.80
2006,01,27,20,59,25.70
2006,01,27,21,00,16.40
2006,01,27,21,01,16.60
2006,01,27,21,02,22.40
2006,01,27,21,03,14.10
2006,01,27,21,04,14.30
2006,01,27,21,05,8.60
2006,01,27,21,06,14.50
2006,01,27,21,07,11.40
2006,01,27,21,08,11.10
2006,01,27,21,09,15.40
2006,01,27,21,10,18.90
2006,01,27,21,11,13.00
2006,01,27,21,12,21.10
2006,01,27,21,13,18.40
2006,01,27,21,14,18.70
2006,01,27,21,15,13.90
2006,01,27,21,16,12.00
2006,01,27,21,17,16.60
2006,01,27,21,18,20.80
2006,01,27,21,19,14.50
2006,01,27,21,20,14.00
2006,01,27,21,21,11.10
2006,01,27,21,22,12.20
2006,01,27,21,23,14.70
2006,01,27,21,24,9.60
2006,01,27,21,25,9.40
2006,01,27,21,26,12.50
2006,01,27,21,27,10.90
2006,01,27,21,28,9.10
2006,01,27,21,29,17.40
2006,01,27,21,30,22.40
2006,01,27,21,31,21.20
2006,01,27,21,32,15.00
2006,01,27,21,33,12.80
2006,01,27,21,34,7.10
2006,01,27,21,35,9.80
2006,01,27,21,36,9.20
2006,01,27,21,37,8.10
2006,01,27,21,38,10.50
2006,01,27,21,39,13.00
2006,01,27,21,40,18.80
2006,01,27,21,41,17.90
2006,01,27,21,42,16.60
2006,01,27,21,43,18.50
2006,01,27,21,44,25.00
2006,01,27,21,45,25.50
2006,01,27,21,46,15.20
2006,01,27,21,47,17.60
2006,01,27,21,48,19.40
2006,01,27,21,49,24.70
2006,01,27,21,50,18.80
2006,01,27,21,51,23.00
2006,01,27,21,52,20.90
2006,01,27,21,53,14.80
2006,01,27,21,54,12.20
2006,01,27,21,55,12.10
2006,01,27,21,56,18.60
2006,01,27,21,57,20.30
2006,01,27,21,58,28.20
2006,01,27,21,59,21.90
2006,01,27,22,00,17.10
2006,01,27,22,01,20.40
2006,01,27,22,02,15.50
2006,01,27,22,03,11.00
2006,01,27,22,04,15.40
2006,01,27,22,05,16.60
2006,01,27,22,06,23.20
2006,01,27,22,07,18.90
2006,01,27,22,08,27.90
2006,01,27,22,09,26.30
2006,01,27,22,10,20.10
2006,01,27,22,11,18.80
2006,01,27,22,12,22.50
2006,01,27,22,13,20.00
2006,01,27,22,14,25.90
2006,01,27,22,15,22.70
2006,01,27,22,16,27.30
2006,01,27,22,17,22.00
2006,01,27,22,18,19.50
2006,01,27,22,19,17.00
2006,01,27,22,20,17.70
2006,01,27,22,21,26.00
2006,01,27,22,22,34.10
2006,01,27,22,23,37.40
2006,01,27,22,24,32.20
2006,01,27,22,25,30.70
2006,01,27,22,26,23.00
2006,01,27,22,27,23.90
2006,01,27,22,28,24.90
2006,01,27,22,29,20.90
2006,01,27,22,30,24.00
2006,01,27,22,31,17.50
2006,01,27,22,32,20.50
2006,01,27,22,33,18.90
2006,01,27,22,34,24.00
2006,01,27,22,35,22.40
2006,01,27,22,36,17.40
2006,01,27,22,37,18.20
2006,01,27,22,38,23.70
2006,01,27,22,39,19.60
2006,01,27,22,40,26.30
2006,01,27,22,41,23.60
2006,01,27,22,42,28.60
2006,01,27,22,43,28.40
2006,01,27,22,44,33.20
2006,01,27,22,45,30.10
2006,01,27,22,46,29.40
2006,01,27,22,47,31.70
2006,01,27,22,48,31.80
2006,01,27,22,49,29.70
2006,01,27,22,50,32.50
2006,01,27,22,51,31.90
2006,01,27,22,52,24.80
2006,01,27,22,53,21.00
2006,01,27,22,54,31.60
2006,01,27,22,55,27.70
2006,01,27,22,56,19.30
2006,01,27,22,57,26.60